• In Belarus
  • List of Countries
  • For 7 days
  • Water Temperature
  • Satellite Maps
  • Weather Map
  • Weather Widgets
  • user-avatar
    Login

    Hourly Weather Corozal

    Today, 18 December, Monday

    Time Temperature Precipitation Wind Pressure Humidity
    00:00 +24°C° 0 mm 2 mps 762 mmHg 98%
    01:00 +24°C° 0.1 mm 2 mps 762 mmHg 98%
    02:00 +24°C° 0.1 mm 2 mps 761 mmHg 98%
    03:00 +24°C° 0.1 mm 2 mps 761 mmHg 98%
    04:00 +24°C° 0 mm 2 mps 761 mmHg 98%
    05:00 +24°C° 0 mm 2 mps 762 mmHg 98%
    06:00 +24°C° 0 mm 2 mps 762 mmHg 98%
    07:00 +26°C° 0.1 mm 2 mps 762 mmHg 93%
    08:00 +27°C° 0.1 mm 3 mps 763 mmHg 87%
    09:00 +28°C° 0.1 mm 3 mps 763 mmHg 82%
    10:00 +29°C° 0.2 mm 3 mps 763 mmHg 76%
    11:00 +30°C° 0.2 mm 4 mps 763 mmHg 70%
    12:00 +32°C° 0.2 mm 4 mps 762 mmHg 64%
    13:00 +32°C° 0.1 mm 4 mps 762 mmHg 64%
    14:00 +32°C° 0.1 mm 4 mps 761 mmHg 63%
    15:00 +32°C° 0.1 mm 4 mps 761 mmHg 63%
    16:00 +29°C° 0 mm 3 mps 761 mmHg 71%
    17:00 +28°C° 0 mm 3 mps 761 mmHg 79%
    18:00 +26°C° 0 mm 2 mps 762 mmHg 87%
    19:00 +26°C° 0 mm 2 mps 762 mmHg 90%
    20:00 +25°C° 0 mm 2 mps 762 mmHg 93%
    21:00 +24°C° 0 mm 2 mps 763 mmHg 96%
    22:00 +24°C° 0 mm 2 mps 763 mmHg 97%
    23:00 +24°C° 0 mm 2 mps 763 mmHg 97%

    Tomorrow, 19 December, Tuesday

    Time Temperature Precipitation Wind Pressure Humidity
    00:00 +24°C° 0 mm 2 mps 763 mmHg 98%
    01:00 +24°C° 0.1 mm 2 mps 763 mmHg 98%
    02:00 +24°C° 0.1 mm 2 mps 762 mmHg 98%
    03:00 +24°C° 0.1 mm 2 mps 762 mmHg 98%
    04:00 +24°C° 0 mm 2 mps 762 mmHg 98%
    05:00 +24°C° 0 mm 2 mps 762 mmHg 98%
    06:00 +24°C° 0 mm 2 mps 762 mmHg 98%
    07:00 +26°C° 0 mm 2 mps 763 mmHg 92%
    08:00 +27°C° 0 mm 2 mps 763 mmHg 85%
    09:00 +29°C° 0 mm 3 mps 764 mmHg 79%
    10:00 +30°C° 0.1 mm 3 mps 763 mmHg 73%
    11:00 +31°C° 0.1 mm 3 mps 763 mmHg 67%
    12:00 +33°C° 0.1 mm 4 mps 763 mmHg 61%
    13:00 +33°C° 0.1 mm 4 mps 762 mmHg 61%
    14:00 +33°C° 0.1 mm 4 mps 761 mmHg 62%
    15:00 +32°C° 0.1 mm 4 mps 760 mmHg 63%
    16:00 +30°C° 0 mm 3 mps 761 mmHg 71%
    17:00 +28°C° 0 mm 3 mps 761 mmHg 79%
    18:00 +26°C° 0 mm 2 mps 761 mmHg 87%
    19:00 +26°C° 0 mm 2 mps 761 mmHg 90%
    20:00 +25°C° 0 mm 2 mps 762 mmHg 93%
    21:00 +25°C° 0 mm 2 mps 762 mmHg 97%
    22:00 +25°C° 0 mm 2 mps 762 mmHg 97%
    23:00 +24°C° 0 mm 2 mps 762 mmHg 98%

    Day after tomorrow, 20 December, Wednesday

    Time Temperature Precipitation Wind Pressure Humidity
    00:00 +24°C° 0 mm 2 mps 762 mmHg 98%
    01:00 +24°C° 0 mm 2 mps 761 mmHg 98%
    02:00 +24°C° 0 mm 2 mps 761 mmHg 98%
    03:00 +24°C° 0 mm 2 mps 761 mmHg 99%
    04:00 +24°C° 0 mm 1 mps 761 mmHg 99%
    05:00 +24°C° 0 mm 1 mps 761 mmHg 98%
    06:00 +24°C° 0 mm 1 mps 761 mmHg 98%
    07:00 +25°C° 0 mm 1 mps 761 mmHg 92%
    08:00 +27°C° 0 mm 2 mps 762 mmHg 86%
    09:00 +29°C° 0 mm 2 mps 763 mmHg 80%
    10:00 +30°C° 0.1 mm 2 mps 762 mmHg 73%
    11:00 +31°C° 0.1 mm 2 mps 762 mmHg 67%
    12:00 +32°C° 0.1 mm 2 mps 761 mmHg 61%
    13:00 +32°C° 0.3 mm 2 mps 761 mmHg 65%
    14:00 +31°C° 0.3 mm 2 mps 760 mmHg 69%
    15:00 +30°C° 0.3 mm 3 mps 759 mmHg 73%
    16:00 +29°C° 0.1 mm 2 mps 759 mmHg 79%
    17:00 +27°C° 0.1 mm 2 mps 760 mmHg 86%
    18:00 +26°C° 0.1 mm 2 mps 760 mmHg 92%
    19:00 +26°C° 0 mm 1 mps 760 mmHg 94%
    20:00 +25°C° 0 mm 1 mps 761 mmHg 96%
    21:00 +25°C° 0 mm 1 mps 761 mmHg 98%
    22:00 +25°C° 0 mm 1 mps 761 mmHg 98%
    23:00 +24°C° 0 mm 1 mps 761 mmHg 98%

    21 December, Thursday

    Time Temperature Precipitation Wind Pressure Humidity
    00:00 +24°C° 0 mm 1 mps 760 mmHg 99%
    01:00 +24°C° 0 mm 1 mps 760 mmHg 99%
    02:00 +24°C° 0 mm 1 mps 760 mmHg 99%
    03:00 +24°C° 0 mm 1 mps 759 mmHg 99%
    04:00 +24°C° 0 mm 1 mps 760 mmHg 99%
    05:00 +24°C° 0 mm 1 mps 760 mmHg 99%
    06:00 +24°C° 0 mm 2 mps 760 mmHg 99%
    07:00 +25°C° 0 mm 2 mps 760 mmHg 93%
    08:00 +27°C° 0 mm 2 mps 761 mmHg 87%
    09:00 +28°C° 0 mm 3 mps 761 mmHg 82%
    10:00 +30°C° 0 mm 3 mps 761 mmHg 74%
    11:00 +31°C° 0 mm 3 mps 761 mmHg 66%
    12:00 +33°C° 0 mm 3 mps 760 mmHg 58%
    13:00 +33°C° 0 mm 3 mps 760 mmHg 57%
    14:00 +33°C° 0 mm 3 mps 759 mmHg 57%
    15:00 +33°C° 0 mm 3 mps 759 mmHg 57%
    16:00 +30°C° 0 mm 3 mps 759 mmHg 66%
    17:00 +28°C° 0 mm 2 mps 759 mmHg 75%
    18:00 +26°C° 0 mm 2 mps 759 mmHg 84%
    19:00 +26°C° 0 mm 2 mps 760 mmHg 88%
    20:00 +25°C° 0 mm 2 mps 760 mmHg 92%
    21:00 +25°C° 0 mm 2 mps 761 mmHg 97%
    22:00 +25°C° 0 mm 2 mps 761 mmHg 97%
    23:00 +25°C° 0 mm 2 mps 760 mmHg 98%

    22 December, Friday

    Time Temperature Precipitation Wind Pressure Humidity
    00:00 +25°C° 0 mm 2 mps 760 mmHg 98%
    01:00 +25°C° 0.2 mm 2 mps 760 mmHg 98%
    02:00 +25°C° 0.2 mm 2 mps 759 mmHg 98%
    03:00 +25°C° 0.2 mm 2 mps 759 mmHg 98%
    04:00 +25°C° 0.1 mm 2 mps 759 mmHg 98%
    05:00 +24°C° 0.1 mm 2 mps 760 mmHg 98%
    06:00 +24°C° 0.1 mm 2 mps 760 mmHg 98%
    07:00 +26°C° 0 mm 3 mps 760 mmHg 92%
    08:00 +27°C° 0 mm 3 mps 761 mmHg 86%
    09:00 +29°C° 0 mm 4 mps 761 mmHg 80%
    10:00 +30°C° 0.1 mm 4 mps 761 mmHg 74%
    11:00 +32°C° 0.1 mm 4 mps 761 mmHg 68%
    12:00 +33°C° 0.1 mm 4 mps 760 mmHg 62%
    13:00 +32°C° 0.1 mm 4 mps 760 mmHg 64%
    14:00 +32°C° 0.1 mm 4 mps 759 mmHg 65%
    15:00 +32°C° 0.1 mm 4 mps 759 mmHg 66%
    16:00 +29°C° 0 mm 3 mps 759 mmHg 72%
    17:00 +28°C° 0 mm 3 mps 759 mmHg 78%
    18:00 +26°C° 0 mm 2 mps 760 mmHg 85%
    19:00 +26°C° 0 mm 2 mps 760 mmHg 88%
    20:00 +25°C° 0 mm 2 mps 761 mmHg 91%
    21:00 +25°C° 0 mm 2 mps 761 mmHg 94%
    22:00 +25°C° 0 mm 2 mps 761 mmHg 95%
    23:00 +25°C° 0 mm 2 mps 761 mmHg 96%

    23 December, Saturday

    Time Temperature Precipitation Wind Pressure Humidity
    00:00 +25°C° 0 mm 2 mps 761 mmHg 96%
    01:00 +25°C° 0 mm 2 mps 760 mmHg 97%
    02:00 +25°C° 0 mm 2 mps 760 mmHg 97%
    03:00 +24°C° 0 mm 2 mps 760 mmHg 98%
    04:00 +24°C° 0 mm 2 mps 761 mmHg 97%
    05:00 +24°C° 0 mm 2 mps 761 mmHg 97%
    06:00 +24°C° 0 mm 2 mps 761 mmHg 97%
    07:00 +26°C° 0 mm 2 mps 762 mmHg 89%
    08:00 +28°C° 0 mm 3 mps 762 mmHg 81%
    09:00 +30°C° 0 mm 3 mps 763 mmHg 73%
    10:00 +31°C° 0 mm 3 mps 762 mmHg 67%
    11:00 +33°C° 0 mm 3 mps 762 mmHg 61%
    12:00 +34°C° 0 mm 3 mps 761 mmHg 55%
    13:00 +34°C° 0 mm 3 mps 761 mmHg 56%
    14:00 +33°C° 0 mm 3 mps 760 mmHg 56%
    15:00 +33°C° 0 mm 3 mps 760 mmHg 57%
    16:00 +30°C° 0.1 mm 3 mps 760 mmHg 67%
    17:00 +28°C° 0.1 mm 3 mps 760 mmHg 76%
    18:00 +27°C° 0.1 mm 2 mps 761 mmHg 86%
    19:00 +26°C° 0.1 mm 2 mps 761 mmHg 90%
    20:00 +25°C° 0.1 mm 2 mps 762 mmHg 94%
    21:00 +25°C° 0.1 mm 2 mps 762 mmHg 97%
    22:00 +24°C° 0.1 mm 2 mps 762 mmHg 97%
    23:00 +24°C° 0.1 mm 2 mps 762 mmHg 98%
    Show more